Hourly Weather Roundup
Issued by NWS Central Illinois

Home | Current Version | Previous Version | Text Only | Print | Product List | Glossary On
Versions: 1 2 3 4 5 6 7 8 9 10 11 12 13 14 15 16 17 18 19 20 21 22 23 24 25 26 27 28 29 30 31 32 33 34 35 36 37 38 39 40 41 42 43 44 45 46 47 48 49 50
000
NZUS43 KILX 280910
HWRILX

AREA WEATHER ROUNDUP
NATIONAL WEATHER SERVICE, LINCOLN IL
400 AM CDT MON JUL 28 2014


CITY           SKY/WX    TMP DP  RH WIND       PRES   REMARKS
BLOOMINGTON    MOCLDY    62  58  87 N8        29.99R
CHAMPAIGN      CLEAR     63  60  90 N9        29.96R
DECATUR        CLEAR     65  60  84 N10       29.97R
FLORA          CLEAR     64  58  81 NW7       29.96R
GALESBURG      CLEAR     61  60  95 N7        30.03R
JACKSONVILLE   CLEAR     64  61  91 NW7       30.02R
LACON          CLEAR     62  58  85 N7        29.99R
LAWRENCEVILLE  CLEAR     64  60  87 NW12      29.93R
LITCHFIELD     CLEAR     62  59  89 NW6       30.00R
$$


CITY           SKY/WX    TMP DP  RH WIND       PRES   REMARKS
LINCOLN        PTCLDY    63  60  91 NW3       29.97R
MACOMB         CLEAR     62  60  96 NW7       30.05R
MATTOON        PTCLDY    62  59  90 NW12      29.94R
MT CARMEL AP   CLEAR     68  61  77 NW9       29.93S
OLNEY-NOBLE AP CLEAR     63  59  88 NW3       29.95R
PARIS          CLEAR     61  60  96 NW5       29.94R
PEORIA         CLOUDY    65  59  81 N6        30.00R
PONTIAC        PTCLDY    63  57  82 N7        29.98R
RANTOUL        PTCLDY    64  57  77 N10       29.96S
ROBINSON       CLEAR     64  61  89 W7        29.94R
SPRINGFIELD    CLEAR     65  61  87 NW9       29.99R
TAYLORVILLE    CLEAR     61  59  94 NW8       29.98S
$$

...REGIONAL REPORTS...


CITY           SKY/WX    TMP DP  RH WIND       PRES   REMARKS
CHICAGO O`HARE CLEAR     62  49  62 N12       29.95R
KANKAKEE       CLEAR     61  54  78 CALM      29.95R
MOLINE         CLOUDY    66  59  78 N10G17    30.03R
MOUNT VERNON   CLEAR     66  55  68 NW3       29.98R
PITTSFIELD     CLEAR     64  59  82 NW7       30.04R
QUINCY         CLEAR     63  58  83 NW9       30.04R
ROCKFORD       CLEAR     60  52  74 N12       30.03R
$$


CITY           SKY/WX    TMP DP  RH WIND       PRES   REMARKS
BURLINGTON     CLEAR     63  61  93 N10       30.04R
CEDAR RAPIDS   PTCLDY    61  57  87 N9        30.07R
DES MOINES     MOCLDY    63  58  83 N10       30.12S
KIRKSVILLE     CLEAR     62  57  83 NW8       30.10R
OTTUMWA        CLEAR     61  59  93 NW10      30.09R
ST LOUIS       CLEAR     67  59  75 W6        30.02R
$$


CITY           SKY/WX    TMP DP  RH WIND       PRES   REMARKS
TERRE HAUTE    PTCLDY    63  59  87 NW8       29.92R
EVANSVILLE     CLEAR     67  58  72 W7        29.94R
INDIANAPOLIS   MOCLDY    63  58  83 NW14      29.88R
LAFAYETTE      CLOUDY    62  56  80 NW12      29.91R
MADISON        CLEAR     57  51  80 NW7       30.04R
MILWAUKEE      PTCLDY    58  49  72 N13       29.97R
$$





USA.gov is the U.S. government's official web portal to all federal, state and local government web resources and services.